Time,TemperatureF,DewpointF,PressureIn,WindDirection,WindDirectionDegrees,WindSpeedMPH,WindSpeedGustMPH,Humidity,HourlyPrecipIn,Conditions,Clouds,dailyrainin,SolarRadiationWatts/m^2,SoftwareType,DateUTC
2013-03-16 00:05:00,40.3,29.1,30.05,WSW,250,0.0,0.0,64,0.00,,,0.00,0,Wunderground v.1.15,2013-03-15 23:05:00,
2013-03-16 00:15:00,40.3,29.5,30.05,WSW,249,1.0,1.0,65,0.00,,,0.00,0,Wunderground v.1.15,2013-03-15 23:15:00,
2013-03-16 00:25:00,39.6,27.2,30.05,WNW,296,2.0,3.0,61,0.00,,,0.00,0,Wunderground v.1.15,2013-03-15 23:25:00,
2013-03-16 00:35:00,39.6,26.4,30.05,WNW,298,1.0,1.0,59,0.00,,,0.00,0,Wunderground v.1.15,2013-03-15 23:35:00,
2013-03-16 00:45:00,39.5,25.9,30.05,West,277,1.0,2.0,58,0.00,,,0.00,0,Wunderground v.1.15,2013-03-15 23:45:00,
2013-03-16 01:05:00,39.1,25.6,30.05,West,277,1.0,1.0,58,0.00,,,0.00,0,Wunderground v.1.15,2013-03-16 00:05:00,
2013-03-16 01:15:00,39.1,25.1,30.05,West,278,1.0,1.0,57,0.00,,,0.00,0,Wunderground v.1.15,2013-03-16 00:15:00,
2013-03-16 01:30:00,39.3,27.0,30.05,West,278,0.0,0.0,61,0.00,,,0.00,0,Wunderground v.1.15,2013-03-16 00:30:00,
2013-03-16 01:40:00,39.2,27.7,30.05,West,277,0.0,0.0,63,0.00,,,0.00,0,Wunderground v.1.15,2013-03-16 00:40:00,
2013-03-16 01:55:00,38.4,26.5,30.04,West,277,0.0,0.0,62,0.00,,,0.00,0,Wunderground v.1.15,2013-03-16 00:55:00,
2013-03-16 02:10:00,37.9,26.0,30.04,West,277,1.0,1.0,62,0.00,,,0.00,0,Wunderground v.1.15,2013-03-16 01:10:00,
2013-03-16 02:20:00,37.8,25.5,30.04,West,276,2.0,2.0,61,0.00,,,0.00,0,Wunderground v.1.15,2013-03-16 01:20:00,
2013-03-16 02:35:00,37.7,25.1,30.04,West,280,1.0,4.0,60,0.00,,,0.00,0,Wunderground v.1.15,2013-03-16 01:35:00,
2013-03-16 02:50:00,38.3,24.4,30.04,WNW,284,2.0,2.0,57,0.00,,,0.00,0,Wunderground v.1.15,2013-03-16 01:50:00,
2013-03-16 03:05:00,38.6,25.9,30.02,WNW,291,2.0,2.0,60,0.00,,,0.00,0,Wunderground v.1.15,2013-03-16 02:05:00,
2013-03-16 03:15:00,38.3,25.6,30.03,SW,226,1.0,1.0,60,0.00,,,0.00,0,Wunderground v.1.15,2013-03-16 02:15:00,
2013-03-16 03:30:00,37.9,25.6,30.02,SW,227,0.0,0.0,61,0.00,,,0.00,0,Wunderground v.1.15,2013-03-16 02:30:00,
2013-03-16 03:45:00,38.0,26.5,30.01,SW,224,0.0,0.0,63,0.00,,,0.00,0,Wunderground v.1.15,2013-03-16 02:45:00,
2013-03-16 03:55:00,38.1,27.0,30.01,SW,224,1.0,2.0,64,0.00,,,0.00,0,Wunderground v.1.15,2013-03-16 02:55:00,
2013-03-16 04:10:00,38.3,27.9,30.01,SW,223,1.0,1.0,66,0.00,,,0.00,0,Wunderground v.1.15,2013-03-16 03:10:00,
2013-03-16 04:25:00,38.4,28.4,30.00,SW,224,0.0,0.0,67,0.00,,,0.00,0,Wunderground v.1.15,2013-03-16 03:25:00,
2013-03-16 04:35:00,38.6,28.9,30.01,SW,224,0.0,0.0,68,0.00,,,0.00,0,Wunderground v.1.15,2013-03-16 03:35:00,
2013-03-16 04:45:00,38.7,29.0,30.00,SW,223,0.0,1.0,68,0.00,,,0.00,0,Wunderground v.1.15,2013-03-16 03:45:00,
2013-03-16 05:05:00,39.0,30.0,30.00,SW,224,0.0,1.0,70,0.00,,,0.00,0,Wunderground v.1.15,2013-03-16 04:05:00,
2013-03-16 05:15:00,39.6,31.0,30.00,SW,224,1.0,1.0,71,0.00,,,0.00,0,Wunderground v.1.15,2013-03-16 04:15:00,
2013-03-16 05:26:00,39.8,31.8,30.00,SW,224,1.0,1.0,73,0.00,,,0.00,0,Wunderground v.1.15,2013-03-16 04:26:00,
2013-03-16 05:40:00,39.8,31.8,29.99,SW,224,1.0,2.0,73,0.00,,,0.00,0,Wunderground v.1.15,2013-03-16 04:40:00,
2013-03-16 05:50:00,40.1,32.5,29.99,SW,234,1.0,1.0,74,0.00,,,0.00,0,Wunderground v.1.15,2013-03-16 04:50:00,
2013-03-16 06:05:00,40.4,33.4,30.00,SW,234,1.0,1.0,76,0.00,,,0.00,0,Wunderground v.1.15,2013-03-16 05:05:00,
2013-03-16 06:15:00,40.5,33.9,30.00,SW,234,1.0,1.0,77,0.00,,,0.00,0,Wunderground v.1.15,2013-03-16 05:15:00,
2013-03-16 06:25:00,40.5,33.9,30.00,SW,234,0.0,0.0,77,0.00,,,0.00,0,Wunderground v.1.15,2013-03-16 05:25:00,
2013-03-16 06:35:00,40.8,34.8,30.00,WSW,254,1.0,2.0,79,0.00,,,0.00,0,Wunderground v.1.15,2013-03-16 05:35:00,
2013-03-16 06:46:00,41.4,35.7,30.00,West,280,2.0,2.0,80,0.00,,,0.00,0,Wunderground v.1.15,2013-03-16 05:46:00,
2013-03-16 07:05:00,41.1,35.1,29.99,West,279,1.0,1.0,79,0.00,,,0.00,11,Wunderground v.1.15,2013-03-16 06:05:00,
2013-03-16 07:15:00,41.2,35.5,30.00,WNW,290,2.0,2.0,80,0.00,,,0.00,28,Wunderground v.1.15,2013-03-16 06:15:00,
2013-03-16 07:26:00,41.2,35.5,30.00,WNW,289,0.0,0.0,80,0.00,,,0.00,100,Wunderground v.1.15,2013-03-16 06:26:00,
2013-03-16 07:40:00,41.8,36.4,30.01,WNW,288,0.0,0.0,81,0.00,,,0.00,153,Wunderground v.1.15,2013-03-16 06:40:00,
2013-03-16 07:51:00,42.6,37.2,30.01,WNW,289,0.0,1.0,81,0.00,,,0.00,67,Wunderground v.1.15,2013-03-16 06:51:00,
2013-03-16 08:05:00,43.1,37.3,30.01,WNW,289,0.0,0.0,80,0.00,,,0.00,93,Wunderground v.1.15,2013-03-16 07:05:00,
2013-03-16 08:20:00,43.4,37.6,30.01,WNW,289,0.0,0.0,80,0.00,,,0.00,134,Wunderground v.1.15,2013-03-16 07:20:00,
2013-03-16 08:31:00,43.8,38.0,30.01,WNW,289,0.0,0.0,80,0.00,,,0.00,146,Wunderground v.1.15,2013-03-16 07:31:00,
2013-03-16 08:45:00,44.6,38.8,30.00,WNW,289,0.0,0.0,80,0.00,,,0.00,234,Wunderground v.1.15,2013-03-16 07:45:00,
2013-03-16 08:55:00,45.2,39.4,30.00,WNW,289,0.0,0.0,80,0.00,,,0.00,290,Wunderground v.1.15,2013-03-16 07:55:00,
2013-03-16 09:05:00,46.2,40.4,30.00,WNW,288,0.0,0.0,80,0.00,,,0.00,232,Wunderground v.1.15,2013-03-16 08:05:00,
2013-03-16 09:16:00,47.2,41.0,30.00,WNW,289,0.0,0.0,79,0.00,,,0.00,204,Wunderground v.1.15,2013-03-16 08:16:00,
2013-03-16 09:26:00,48.3,42.1,30.00,WNW,289,0.0,1.0,79,0.00,,,0.00,163,Wunderground v.1.15,2013-03-16 08:26:00,
2013-03-16 09:40:00,49.2,42.0,30.00,WSW,244,1.0,1.0,76,0.00,,,0.00,163,Wunderground v.1.15,2013-03-16 08:40:00,
2013-03-16 09:50:00,49.6,41.7,30.00,SSW,205,2.0,2.0,74,0.00,,,0.00,179,Wunderground v.1.15,2013-03-16 08:50:00,
2013-03-16 10:05:00,49.9,41.2,30.00,SSW,200,2.0,2.0,72,0.00,,,0.00,158,Wunderground v.1.15,2013-03-16 09:05:00,
2013-03-16 10:16:00,50.0,41.0,30.00,SSW,199,1.0,2.0,71,0.00,,,0.00,158,Wunderground v.1.15,2013-03-16 09:16:00,
2013-03-16 10:30:00,50.3,40.9,30.00,SSW,207,1.0,3.0,70,0.00,,,0.00,144,Wunderground v.1.15,2013-03-16 09:30:00,
2013-03-16 10:41:00,50.3,40.9,30.00,SSW,209,1.0,2.0,70,0.00,,,0.00,156,Wunderground v.1.15,2013-03-16 09:41:00,
2013-03-16 10:55:00,50.6,40.8,30.00,SSW,201,2.0,2.0,69,0.00,,,0.00,248,Wunderground v.1.15,2013-03-16 09:55:00,
2013-03-16 11:05:00,50.8,40.6,30.00,SSW,200,2.0,2.0,68,0.00,,,0.00,306,Wunderground v.1.15,2013-03-16 10:05:00,
2013-03-16 11:15:00,51.3,41.1,30.00,SW,219,2.0,2.0,68,0.00,,,0.00,362,Wunderground v.1.15,2013-03-16 10:15:00,
2013-03-16 11:30:00,52.2,41.6,30.00,South,175,2.0,2.0,67,0.00,,,0.00,278,Wunderground v.1.15,2013-03-16 10:30:00,
2013-03-16 11:40:00,52.5,41.5,30.00,SW,222,2.0,2.0,66,0.00,,,0.00,267,Wunderground v.1.15,2013-03-16 10:40:00,
2013-03-16 11:50:00,52.7,41.7,29.99,South,173,2.0,5.0,66,0.00,,,0.00,378,Wunderground v.1.15,2013-03-16 10:50:00,
2013-03-16 11:55:00,52.7,41.3,29.99,SSE,152,3.0,5.0,65,0.00,,,0.00,378,Wunderground v.1.15,2013-03-16 10:55:00,
2013-03-16 12:10:00,53.0,41.5,29.98,SW,214,3.0,5.0,65,0.00,,,0.00,397,Wunderground v.1.15,2013-03-16 11:10:00,
2013-03-16 12:20:00,53.2,41.7,29.98,SE,132,3.0,3.0,65,0.00,,,0.00,357,Wunderground v.1.15,2013-03-16 11:20:00,
2013-03-16 12:30:00,53.7,42.2,29.98,South,175,2.0,2.0,65,0.00,,,0.00,415,Wunderground v.1.15,2013-03-16 11:30:00,
2013-03-16 12:45:00,54.5,42.6,29.97,SSW,209,3.0,3.0,64,0.00,,,0.00,373,Wunderground v.1.15,2013-03-16 11:45:00,
2013-03-16 12:55:00,54.4,41.2,29.97,South,189,3.0,3.0,61,0.00,,,0.00,408,Wunderground v.1.15,2013-03-16 11:55:00,
2013-03-16 13:10:00,54.9,41.7,29.97,SE,130,3.0,4.0,61,0.00,,,0.00,689,Wunderground v.1.15,2013-03-16 12:10:00,
2013-03-16 13:20:00,55.5,41.4,29.96,SW,215,3.0,4.0,59,0.00,,,0.00,499,Wunderground v.1.15,2013-03-16 12:20:00,
2013-03-16 13:30:00,55.8,41.2,29.95,ESE,109,3.0,4.0,58,0.00,,,0.00,582,Wunderground v.1.15,2013-03-16 12:30:00,
2013-03-16 13:45:00,56.4,40.4,29.94,ESE,117,2.0,3.0,55,0.00,,,0.00,429,Wunderground v.1.15,2013-03-16 12:45:00,
2013-03-16 13:55:00,56.9,39.9,29.94,SSW,204,3.0,3.0,53,0.00,,,0.00,403,Wunderground v.1.15,2013-03-16 12:55:00,
2013-03-16 14:10:00,58.0,38.9,29.93,South,183,4.0,4.0,49,0.00,,,0.00,726,Wunderground v.1.15,2013-03-16 13:10:00,
2013-03-16 14:20:00,58.5,39.4,29.92,SE,137,2.0,5.0,49,0.00,,,0.00,496,Wunderground v.1.15,2013-03-16 13:20:00,
2013-03-16 14:35:00,58.7,38.0,29.91,South,173,3.0,3.0,46,0.00,,,0.00,462,Wunderground v.1.15,2013-03-16 13:35:00,
2013-03-16 14:45:00,58.3,38.7,29.91,SW,227,3.0,4.0,48,0.00,,,0.00,360,Wunderground v.1.15,2013-03-16 13:45:00,
2013-03-16 14:56:00,57.8,38.8,29.91,SW,226,4.0,4.0,49,0.00,,,0.00,345,Wunderground v.1.15,2013-03-16 13:56:00,
2013-03-16 15:05:00,57.6,38.0,29.91,SE,141,3.0,3.0,48,0.00,,,0.00,309,Wunderground v.1.15,2013-03-16 14:05:00,
2013-03-16 15:20:00,57.0,38.0,29.91,SSW,205,3.0,3.0,49,0.00,,,0.00,239,Wunderground v.1.15,2013-03-16 14:20:00,
2013-03-16 15:40:00,56.3,38.9,29.91,SSW,192,3.0,3.0,52,0.00,,,0.00,174,Wunderground v.1.15,2013-03-16 14:40:00,
2013-03-16 15:51:00,55.8,38.9,29.90,SSW,199,4.0,4.0,53,0.00,,,0.00,174,Wunderground v.1.15,2013-03-16 14:51:00,
2013-03-16 16:05:00,55.4,39.5,29.91,SW,218,3.0,3.0,55,0.00,,,0.00,127,Wunderground v.1.15,2013-03-16 15:05:00,
2013-03-16 16:16:00,55.0,39.1,29.91,South,182,3.0,3.0,55,0.00,,,0.00,135,Wunderground v.1.15,2013-03-16 15:16:00,
2013-03-16 16:30:00,54.4,39.5,29.91,SSE,152,4.0,4.0,57,0.00,,,0.00,139,Wunderground v.1.15,2013-03-16 15:30:00,
2013-03-16 16:41:00,54.1,40.1,29.90,South,186,3.0,3.0,59,0.00,,,0.00,179,Wunderground v.1.15,2013-03-16 15:41:00,
2013-03-16 16:55:00,53.9,40.8,29.91,WSW,251,5.0,5.0,61,0.00,,,0.00,162,Wunderground v.1.15,2013-03-16 15:55:00,
2013-03-16 17:10:00,53.3,40.6,29.90,SSW,210,4.0,5.0,62,0.00,,,0.00,116,Wunderground v.1.15,2013-03-16 16:10:00,
2013-03-16 17:20:00,52.9,39.8,29.90,SSE,163,4.0,4.0,61,0.00,,,0.00,123,Wunderground v.1.15,2013-03-16 16:20:00,
2013-03-16 17:35:00,52.6,40.4,29.90,SSW,193,4.0,4.0,63,0.00,,,0.00,35,Wunderground v.1.15,2013-03-16 16:35:00,
2013-03-16 17:45:00,52.4,40.2,29.90,SSW,206,3.0,4.0,63,0.00,,,0.00,49,Wunderground v.1.15,2013-03-16 16:45:00,
2013-03-16 17:56:00,52.3,40.5,29.89,South,182,2.0,3.0,64,0.00,,,0.00,69,Wunderground v.1.15,2013-03-16 16:56:00,
2013-03-16 18:05:00,52.2,40.8,29.90,SW,218,2.0,2.0,65,0.00,,,0.00,72,Wunderground v.1.15,2013-03-16 17:05:00,
2013-03-16 18:15:00,52.1,40.7,29.90,SSW,194,2.0,2.0,65,0.00,,,0.00,39,Wunderground v.1.15,2013-03-16 17:15:00,
2013-03-16 18:30:00,51.9,40.9,29.89,SW,217,2.0,2.0,66,0.00,,,0.00,12,Wunderground v.1.15,2013-03-16 17:30:00,
2013-03-16 18:45:00,51.8,40.8,29.89,SW,217,2.0,2.0,66,0.00,,,0.00,0,Wunderground v.1.15,2013-03-16 17:45:00,
2013-03-16 18:56:00,51.6,41.0,29.89,SW,225,1.0,1.0,67,0.00,,,0.00,0,Wunderground v.1.15,2013-03-16 17:56:00,
2013-03-16 19:05:00,51.4,40.8,29.89,SW,225,1.0,1.0,67,0.00,,,0.00,0,Wunderground v.1.15,2013-03-16 18:05:00,
2013-03-16 19:15:00,51.3,41.1,29.89,SW,227,1.0,1.0,68,0.00,,,0.00,0,Wunderground v.1.15,2013-03-16 18:15:00,
2013-03-16 19:30:00,51.1,41.3,29.88,SW,234,1.0,1.0,69,0.00,,,0.00,0,Wunderground v.1.15,2013-03-16 18:30:00,
2013-03-16 19:45:00,50.9,41.5,29.89,SW,234,1.0,2.0,70,0.00,,,0.00,0,Wunderground v.1.15,2013-03-16 18:45:00,
2013-03-16 20:05:00,50.7,41.6,29.89,West,263,2.0,2.0,71,0.00,,,0.00,0,Wunderground v.1.15,2013-03-16 19:05:00,
2013-03-16 20:15:00,50.5,41.8,29.89,West,280,2.0,2.0,72,0.00,,,0.00,0,Wunderground v.1.15,2013-03-16 19:15:00,
2013-03-16 20:25:00,50.4,42.1,29.89,West,280,2.0,2.0,73,0.00,,,0.00,0,Wunderground v.1.15,2013-03-16 19:25:00,
2013-03-16 20:30:00,50.3,42.0,29.89,West,279,2.0,3.0,73,0.00,,,0.00,0,Wunderground v.1.15,2013-03-16 19:30:00,
2013-03-16 20:45:00,49.9,41.9,29.89,WNW,284,2.0,3.0,74,0.00,,,0.00,0,Wunderground v.1.15,2013-03-16 19:45:00,
2013-03-16 20:56:00,49.9,42.3,29.89,WNW,283,2.0,2.0,75,0.00,,,0.00,0,Wunderground v.1.15,2013-03-16 19:56:00,
2013-03-16 21:05:00,49.8,42.2,29.87,WNW,284,1.0,2.0,75,0.00,,,0.00,0,Wunderground v.1.15,2013-03-16 20:05:00,
2013-03-16 21:15:00,49.8,42.2,29.89,WNW,285,1.0,1.0,75,0.00,,,0.00,0,Wunderground v.1.15,2013-03-16 20:15:00,
2013-03-16 21:30:00,49.7,42.4,29.88,WNW,289,1.0,3.0,76,0.00,,,0.00,0,Wunderground v.1.15,2013-03-16 20:30:00,
2013-03-16 21:45:00,49.8,42.9,29.88,WNW,289,1.0,3.0,77,0.00,,,0.00,0,Wunderground v.1.15,2013-03-16 20:45:00,
2013-03-16 22:05:00,49.9,43.0,29.87,WNW,289,1.0,3.0,77,0.00,,,0.00,0,Wunderground v.1.15,2013-03-16 21:05:00,
2013-03-16 22:15:00,49.7,43.1,29.87,WNW,290,2.0,3.0,78,0.00,,,0.00,0,Wunderground v.1.15,2013-03-16 21:15:00,
2013-03-16 22:30:00,49.4,43.2,29.85,WNW,291,1.0,1.0,79,0.00,,,0.00,0,Wunderground v.1.15,2013-03-16 21:30:00,
2013-03-16 22:41:00,49.2,43.0,29.85,SW,219,0.0,2.0,79,0.00,,,0.00,0,Wunderground v.1.15,2013-03-16 21:41:00,
2013-03-16 22:55:00,48.9,43.0,29.85,SSW,208,1.0,1.0,80,0.00,,,0.00,0,Wunderground v.1.15,2013-03-16 21:55:00,
2013-03-16 23:10:00,48.6,42.7,29.85,WNW,295,2.0,2.0,80,0.00,,,0.00,0,Wunderground v.1.15,2013-03-16 22:10:00,
2013-03-16 23:20:00,48.3,42.7,29.84,WNW,295,1.0,1.0,81,0.00,,,0.00,0,Wunderground v.1.15,2013-03-16 22:20:00,
2013-03-16 23:26:00,48.2,43.9,29.84,WNW,296,0.0,1.0,85,0.00,,,0.00,0,Wunderground v.1.15,2013-03-16 22:26:00,
2013-03-16 23:40:00,47.7,42.2,29.85,WNW,293,1.0,1.0,81,0.00,,,0.00,0,Wunderground v.1.15,2013-03-16 22:40:00,
2013-03-16 23:50:00,47.4,41.9,29.84,WNW,293,1.0,1.0,81,0.00,,,0.00,0,Wunderground v.1.15,2013-03-16 22:50:00,